Year,Month,Day,Hour,Minute,Value (Times are PST for temperature in C)
2012,10,07,00,00,10.90
2012,10,07,00,01,10.80
2012,10,07,00,02,10.80
2012,10,07,00,03,10.80
2012,10,07,00,04,10.80
2012,10,07,00,05,10.80
2012,10,07,00,06,10.80
2012,10,07,00,07,10.80
2012,10,07,00,08,10.70
2012,10,07,00,09,10.70
2012,10,07,00,10,10.70
2012,10,07,00,11,10.60
2012,10,07,00,12,10.60
2012,10,07,00,13,10.60
2012,10,07,00,14,10.60
2012,10,07,00,15,10.50
2012,10,07,00,16,10.50
2012,10,07,00,17,10.50
2012,10,07,00,18,10.50
2012,10,07,00,19,10.50
2012,10,07,00,20,10.40
2012,10,07,00,21,10.40
2012,10,07,00,22,10.40
2012,10,07,00,23,10.40
2012,10,07,00,24,10.40
2012,10,07,00,25,10.30
2012,10,07,00,26,10.30
2012,10,07,00,27,10.30
2012,10,07,00,28,10.30
2012,10,07,00,29,10.20
2012,10,07,00,30,10.20
2012,10,07,00,31,10.20
2012,10,07,00,32,10.20
2012,10,07,00,33,10.10
2012,10,07,00,34,10.10
2012,10,07,00,35,10.10
2012,10,07,00,36,10.10
2012,10,07,00,37,10.10
2012,10,07,00,38,10.10
2012,10,07,00,39,10.10
2012,10,07,00,40,10.10
2012,10,07,00,41,10.00
2012,10,07,00,42,10.00
2012,10,07,00,43,10.00
2012,10,07,00,44,10.00
2012,10,07,00,45,9.90
2012,10,07,00,46,9.90
2012,10,07,00,47,10.00
2012,10,07,00,48,10.00
2012,10,07,00,49,10.00
2012,10,07,00,50,10.10
2012,10,07,00,51,10.10
2012,10,07,00,52,10.20
2012,10,07,00,53,10.20
2012,10,07,00,54,10.20
2012,10,07,00,55,10.30
2012,10,07,00,56,10.30
2012,10,07,00,57,10.30
2012,10,07,00,58,10.30
2012,10,07,00,59,10.30
2012,10,07,01,00,10.30
2012,10,07,01,01,10.30
2012,10,07,01,02,10.40
2012,10,07,01,03,10.40
2012,10,07,01,04,10.40
2012,10,07,01,05,10.30
2012,10,07,01,06,10.30
2012,10,07,01,07,10.30
2012,10,07,01,08,10.30
2012,10,07,01,09,10.30
2012,10,07,01,10,10.30
2012,10,07,01,11,10.30
2012,10,07,01,12,10.30
2012,10,07,01,13,10.30
2012,10,07,01,14,10.30
2012,10,07,01,15,10.30
2012,10,07,01,16,10.20
2012,10,07,01,17,10.20
2012,10,07,01,18,10.20
2012,10,07,01,19,10.20
2012,10,07,01,20,10.20
2012,10,07,01,21,10.20
2012,10,07,01,22,10.10
2012,10,07,01,23,10.10
2012,10,07,01,24,10.10
2012,10,07,01,25,10.10
2012,10,07,01,26,10.00
2012,10,07,01,27,10.00
2012,10,07,01,28,9.90
2012,10,07,01,29,9.90
2012,10,07,01,30,9.90
2012,10,07,01,31,9.80
2012,10,07,01,32,9.80
2012,10,07,01,33,9.70
2012,10,07,01,34,9.70
2012,10,07,01,35,9.70
2012,10,07,01,36,9.70
2012,10,07,01,37,9.60
2012,10,07,01,38,9.60
2012,10,07,01,39,9.60
2012,10,07,01,40,9.60
2012,10,07,01,41,9.60
2012,10,07,01,42,9.60
2012,10,07,01,43,9.60
2012,10,07,01,44,9.60
2012,10,07,01,45,9.60
2012,10,07,01,46,9.60
2012,10,07,01,47,9.60
2012,10,07,01,48,9.60
2012,10,07,01,49,9.60
2012,10,07,01,50,9.60
2012,10,07,01,51,9.60
2012,10,07,01,52,9.60
2012,10,07,01,53,9.70
2012,10,07,01,54,9.70
2012,10,07,01,55,9.60
2012,10,07,01,56,9.60
2012,10,07,01,57,9.60
2012,10,07,01,58,9.60
2012,10,07,01,59,9.60
2012,10,07,02,00,9.60
2012,10,07,02,01,9.60
2012,10,07,02,02,9.60
2012,10,07,02,03,9.60
2012,10,07,02,04,9.60
2012,10,07,02,05,9.60
2012,10,07,02,06,9.60
2012,10,07,02,07,9.60
2012,10,07,02,08,9.60
2012,10,07,02,09,9.60
2012,10,07,02,10,9.60
2012,10,07,02,11,9.70
2012,10,07,02,12,9.70
2012,10,07,02,13,9.70
2012,10,07,02,14,9.70
2012,10,07,02,15,9.70
2012,10,07,02,16,9.70
2012,10,07,02,17,9.70
2012,10,07,02,18,9.70
2012,10,07,02,19,9.80
2012,10,07,02,20,9.80
2012,10,07,02,21,9.80
2012,10,07,02,22,9.80
2012,10,07,02,23,9.90
2012,10,07,02,24,9.90
2012,10,07,02,25,9.90
2012,10,07,02,26,9.90
2012,10,07,02,27,9.90
2012,10,07,02,28,9.90
2012,10,07,02,29,9.90
2012,10,07,02,30,9.90
2012,10,07,02,31,10.00
2012,10,07,02,32,9.90
2012,10,07,02,33,9.90
2012,10,07,02,34,9.90
2012,10,07,02,35,9.90
2012,10,07,02,36,9.90
2012,10,07,02,37,9.90
2012,10,07,02,38,9.90
2012,10,07,02,39,9.90
2012,10,07,02,40,9.90
2012,10,07,02,41,9.90
2012,10,07,02,42,9.90
2012,10,07,02,43,9.90
2012,10,07,02,44,9.90
2012,10,07,02,45,9.90
2012,10,07,02,46,10.00
2012,10,07,02,47,10.00
2012,10,07,02,48,10.00
2012,10,07,02,49,10.10
2012,10,07,02,50,10.10
2012,10,07,02,51,10.10
2012,10,07,02,52,10.10
2012,10,07,02,53,10.10
2012,10,07,02,54,10.10
2012,10,07,02,55,10.10
2012,10,07,02,56,10.20
2012,10,07,02,57,10.20
2012,10,07,02,58,10.20
2012,10,07,02,59,10.20
2012,10,07,03,00,10.20
2012,10,07,03,01,10.30
2012,10,07,03,02,10.30
2012,10,07,03,03,10.30
2012,10,07,03,04,10.30
2012,10,07,03,05,10.30
2012,10,07,03,06,10.30
2012,10,07,03,07,10.30
2012,10,07,03,08,10.30
2012,10,07,03,09,10.30
2012,10,07,03,10,10.30
2012,10,07,03,11,10.30
2012,10,07,03,12,10.20
2012,10,07,03,13,10.20
2012,10,07,03,14,10.20
2012,10,07,03,15,10.20
2012,10,07,03,16,10.20
2012,10,07,03,17,10.10
2012,10,07,03,18,10.10
2012,10,07,03,19,10.10
2012,10,07,03,20,10.00
2012,10,07,03,21,10.00
2012,10,07,03,22,10.00
2012,10,07,03,23,10.00
2012,10,07,03,24,10.00
2012,10,07,03,25,10.10
2012,10,07,03,26,10.10
2012,10,07,03,27,10.10
2012,10,07,03,28,10.10
2012,10,07,03,29,10.10
2012,10,07,03,30,10.10
2012,10,07,03,31,10.10
2012,10,07,03,32,10.20
2012,10,07,03,33,10.20
2012,10,07,03,34,10.20
2012,10,07,03,35,10.20
2012,10,07,03,36,10.30
2012,10,07,03,37,10.30
2012,10,07,03,38,10.30
2012,10,07,03,39,10.30
2012,10,07,03,40,10.30
2012,10,07,03,41,10.30
2012,10,07,03,42,10.30
2012,10,07,03,43,10.30
2012,10,07,03,44,10.20
2012,10,07,03,45,10.20
2012,10,07,03,46,10.20
2012,10,07,03,47,10.20
2012,10,07,03,48,10.20
2012,10,07,03,49,10.10
2012,10,07,03,50,10.10
2012,10,07,03,51,10.10
2012,10,07,03,52,10.00
2012,10,07,03,53,10.00
2012,10,07,03,54,9.90
2012,10,07,03,55,9.90
2012,10,07,03,56,9.90
2012,10,07,03,57,9.80
2012,10,07,03,58,9.80
2012,10,07,03,59,9.80
2012,10,07,04,00,9.80
2012,10,07,04,01,9.70
2012,10,07,04,02,9.70
2012,10,07,04,03,9.70
2012,10,07,04,04,9.70
2012,10,07,04,05,9.70
2012,10,07,04,06,9.60
2012,10,07,04,07,9.60
2012,10,07,04,08,9.60
2012,10,07,04,09,9.60
2012,10,07,04,10,9.60
2012,10,07,04,11,9.60
2012,10,07,04,12,9.60
2012,10,07,04,13,9.50
2012,10,07,04,14,9.50
2012,10,07,04,15,9.40
2012,10,07,04,16,9.40
2012,10,07,04,17,9.40
2012,10,07,04,18,9.40
2012,10,07,04,19,9.30
2012,10,07,04,20,9.40
2012,10,07,04,21,9.40
2012,10,07,04,22,9.40
2012,10,07,04,23,9.40
2012,10,07,04,24,9.40
2012,10,07,04,25,9.40
2012,10,07,04,26,9.50
2012,10,07,04,27,9.40
2012,10,07,04,28,9.50
2012,10,07,04,29,9.40
2012,10,07,04,30,9.40
2012,10,07,04,31,9.40
2012,10,07,04,32,9.40
2012,10,07,04,33,9.40
2012,10,07,04,34,9.40
2012,10,07,04,35,9.40
2012,10,07,04,36,9.40
2012,10,07,04,37,9.40
2012,10,07,04,38,9.40
2012,10,07,04,39,9.40
2012,10,07,04,40,9.40
2012,10,07,04,41,9.40
2012,10,07,04,42,9.40
2012,10,07,04,43,9.40
2012,10,07,04,44,9.40
2012,10,07,04,45,9.40
2012,10,07,04,46,9.40
2012,10,07,04,47,9.50
2012,10,07,04,48,9.60
2012,10,07,04,49,9.60
2012,10,07,04,50,9.60
2012,10,07,04,51,9.60
2012,10,07,04,52,9.60
2012,10,07,04,53,9.60
2012,10,07,04,54,9.60
2012,10,07,04,55,9.50
2012,10,07,04,56,9.50
2012,10,07,04,57,9.40
2012,10,07,04,58,9.40
2012,10,07,04,59,9.50
2012,10,07,05,00,9.50
2012,10,07,05,01,9.50
2012,10,07,05,02,9.50
2012,10,07,05,03,9.50
2012,10,07,05,04,9.50
2012,10,07,05,05,9.50
2012,10,07,05,06,9.50
2012,10,07,05,07,9.50
2012,10,07,05,08,9.50
2012,10,07,05,09,9.50
2012,10,07,05,10,9.50
2012,10,07,05,11,9.40
2012,10,07,05,12,9.40
2012,10,07,05,13,9.40
2012,10,07,05,14,9.40
2012,10,07,05,15,9.30
2012,10,07,05,16,9.30
2012,10,07,05,17,9.30
2012,10,07,05,18,9.30
2012,10,07,05,19,9.30
2012,10,07,05,20,9.30
2012,10,07,05,21,9.30
2012,10,07,05,22,9.20
2012,10,07,05,23,9.20
2012,10,07,05,24,9.20
2012,10,07,05,25,9.20
2012,10,07,05,26,9.20
2012,10,07,05,27,9.20
2012,10,07,05,28,9.10
2012,10,07,05,29,9.10
2012,10,07,05,30,9.10
2012,10,07,05,31,9.10
2012,10,07,05,32,9.10
2012,10,07,05,33,9.00
2012,10,07,05,34,9.00
2012,10,07,05,35,9.00
2012,10,07,05,36,9.00
2012,10,07,05,37,9.00
2012,10,07,05,38,9.00
2012,10,07,05,39,9.00
2012,10,07,05,40,8.90
2012,10,07,05,41,8.90
2012,10,07,05,42,8.90
2012,10,07,05,43,8.90
2012,10,07,05,44,8.90
2012,10,07,05,45,8.80
2012,10,07,05,46,8.80
2012,10,07,05,47,8.80
2012,10,07,05,48,8.80
2012,10,07,05,49,8.80
2012,10,07,05,50,8.80
2012,10,07,05,51,8.80
2012,10,07,05,52,8.70
2012,10,07,05,53,8.70
2012,10,07,05,54,8.70
2012,10,07,05,55,8.70
2012,10,07,05,56,8.70
2012,10,07,05,57,8.70
2012,10,07,05,58,8.70
2012,10,07,05,59,8.70
2012,10,07,06,00,8.70
2012,10,07,06,01,8.70
2012,10,07,06,02,8.70
2012,10,07,06,03,8.70
2012,10,07,06,04,8.70
2012,10,07,06,05,8.70
2012,10,07,06,06,8.60
2012,10,07,06,07,8.60
2012,10,07,06,08,8.60
2012,10,07,06,09,8.60
2012,10,07,06,10,8.60
2012,10,07,06,11,8.60
2012,10,07,06,12,8.60
2012,10,07,06,13,8.60
2012,10,07,06,14,8.60
2012,10,07,06,15,8.60
2012,10,07,06,16,8.60
2012,10,07,06,17,8.70
2012,10,07,06,18,8.70
2012,10,07,06,19,8.70
2012,10,07,06,20,8.70
2012,10,07,06,21,8.80
2012,10,07,06,22,8.80
2012,10,07,06,23,8.80
2012,10,07,06,24,8.80
2012,10,07,06,25,8.80
2012,10,07,06,26,8.80
2012,10,07,06,27,8.80
2012,10,07,06,28,8.80
2012,10,07,06,29,8.80
2012,10,07,06,30,8.80
2012,10,07,06,31,8.80
2012,10,07,06,32,8.80
2012,10,07,06,33,8.80
2012,10,07,06,34,8.70
2012,10,07,06,35,8.70
2012,10,07,06,36,8.70
2012,10,07,06,37,8.70
2012,10,07,06,38,8.70
2012,10,07,06,39,8.70
2012,10,07,06,40,8.70
2012,10,07,06,41,8.70
2012,10,07,06,42,8.60
2012,10,07,06,43,8.60
2012,10,07,06,44,8.60
2012,10,07,06,45,8.60
2012,10,07,06,46,8.60
2012,10,07,06,47,8.60
2012,10,07,06,48,8.60
2012,10,07,06,49,8.60
2012,10,07,06,50,8.60
2012,10,07,06,51,8.60
2012,10,07,06,52,8.60
2012,10,07,06,53,8.60
2012,10,07,06,54,8.50
2012,10,07,06,55,8.50
2012,10,07,06,56,8.50
2012,10,07,06,57,8.50
2012,10,07,06,58,8.50
2012,10,07,06,59,8.50
2012,10,07,07,00,8.50
2012,10,07,07,01,8.50
2012,10,07,07,02,8.50
2012,10,07,07,03,8.60
2012,10,07,07,04,8.60
2012,10,07,07,05,8.70
2012,10,07,07,06,8.70
2012,10,07,07,07,8.80
2012,10,07,07,08,8.80
2012,10,07,07,09,8.80
2012,10,07,07,10,8.80
2012,10,07,07,11,8.80
2012,10,07,07,12,8.80
2012,10,07,07,13,8.80
2012,10,07,07,14,8.80
2012,10,07,07,15,8.80
2012,10,07,07,16,8.80
2012,10,07,07,17,8.70
2012,10,07,07,18,8.60
2012,10,07,07,19,8.60
2012,10,07,07,20,8.60
2012,10,07,07,21,8.50
2012,10,07,07,22,8.50
2012,10,07,07,23,8.50
2012,10,07,07,24,8.50
2012,10,07,07,25,8.50
2012,10,07,07,26,8.50
2012,10,07,07,27,8.50
2012,10,07,07,28,8.60
2012,10,07,07,29,8.60
2012,10,07,07,30,8.60
2012,10,07,07,31,8.60
2012,10,07,07,32,8.70
2012,10,07,07,33,8.70
2012,10,07,07,34,8.70
2012,10,07,07,35,8.80
2012,10,07,07,36,8.80
2012,10,07,07,37,8.90
2012,10,07,07,38,9.00
2012,10,07,07,39,9.00
2012,10,07,07,40,9.10
2012,10,07,07,41,9.10
2012,10,07,07,42,9.20
2012,10,07,07,43,9.20
2012,10,07,07,44,9.20
2012,10,07,07,45,9.20
2012,10,07,07,46,9.20
2012,10,07,07,47,9.20
2012,10,07,07,48,9.20
2012,10,07,07,49,9.30
2012,10,07,07,50,9.30
2012,10,07,07,51,9.20
2012,10,07,07,52,9.20
2012,10,07,07,53,9.20
2012,10,07,07,54,9.20
2012,10,07,07,55,9.20
2012,10,07,07,56,9.20
2012,10,07,07,57,9.20
2012,10,07,07,58,9.10
2012,10,07,07,59,9.10
2012,10,07,08,00,9.10
2012,10,07,08,01,9.10
2012,10,07,08,02,9.20
2012,10,07,08,03,9.20
2012,10,07,08,04,9.20
2012,10,07,08,05,9.20
2012,10,07,08,06,9.10
2012,10,07,08,07,9.10
2012,10,07,08,08,9.10
2012,10,07,08,09,9.10
2012,10,07,08,10,9.10
2012,10,07,08,11,9.10
2012,10,07,08,12,9.20
2012,10,07,08,13,9.20
2012,10,07,08,14,9.20
2012,10,07,08,15,9.30
2012,10,07,08,16,9.30
2012,10,07,08,17,9.40
2012,10,07,08,18,9.50
2012,10,07,08,19,9.60
2012,10,07,08,20,9.70
2012,10,07,08,21,9.80
2012,10,07,08,22,9.80
2012,10,07,08,23,9.90
2012,10,07,08,24,10.00
2012,10,07,08,25,10.10
2012,10,07,08,26,10.20
2012,10,07,08,27,10.30
2012,10,07,08,28,10.40
2012,10,07,08,29,10.50
2012,10,07,08,30,10.60
2012,10,07,08,31,10.60
2012,10,07,08,32,10.70
2012,10,07,08,33,10.80
2012,10,07,08,34,10.80
2012,10,07,08,35,10.90
2012,10,07,08,36,10.90
2012,10,07,08,37,11.00
2012,10,07,08,38,11.00
2012,10,07,08,39,11.10
2012,10,07,08,40,11.20
2012,10,07,08,41,11.20
2012,10,07,08,42,11.30
2012,10,07,08,43,11.40
2012,10,07,08,44,11.50
2012,10,07,08,45,11.50
2012,10,07,08,46,11.60
2012,10,07,08,47,11.70
2012,10,07,08,48,11.80
2012,10,07,08,49,11.80
2012,10,07,08,50,11.90
2012,10,07,08,51,12.00
2012,10,07,08,52,12.10
2012,10,07,08,53,12.20
2012,10,07,08,54,12.30
2012,10,07,08,55,12.40
2012,10,07,08,56,12.50
2012,10,07,08,57,12.60
2012,10,07,08,58,12.70
2012,10,07,08,59,12.80
2012,10,07,09,00,12.90
2012,10,07,09,01,13.00
2012,10,07,09,02,13.10
2012,10,07,09,03,13.20
2012,10,07,09,04,13.30
2012,10,07,09,05,13.40
2012,10,07,09,06,13.50
2012,10,07,09,07,13.60
2012,10,07,09,08,13.70
2012,10,07,09,09,13.80
2012,10,07,09,10,13.90
2012,10,07,09,11,14.00
2012,10,07,09,12,14.20
2012,10,07,09,13,14.30
2012,10,07,09,14,14.30
2012,10,07,09,15,14.30
2012,10,07,09,16,14.30
2012,10,07,09,17,14.30
2012,10,07,09,18,14.30
2012,10,07,09,19,14.40
2012,10,07,09,20,14.50
2012,10,07,09,21,14.60
2012,10,07,09,22,14.70
2012,10,07,09,23,14.80
2012,10,07,09,24,15.00
2012,10,07,09,25,15.00
2012,10,07,09,26,15.00
2012,10,07,09,27,15.00
2012,10,07,09,28,15.00
2012,10,07,09,29,15.10
2012,10,07,09,30,15.10
2012,10,07,09,31,15.10
2012,10,07,09,32,15.00
2012,10,07,09,33,15.00
2012,10,07,09,34,15.00
2012,10,07,09,35,15.00
2012,10,07,09,36,15.00
2012,10,07,09,37,15.00
2012,10,07,09,38,15.00
2012,10,07,09,39,15.00
2012,10,07,09,40,15.00
2012,10,07,09,41,15.00
2012,10,07,09,42,14.90
2012,10,07,09,43,14.90
2012,10,07,09,44,14.80
2012,10,07,09,45,14.70
2012,10,07,09,46,14.60
2012,10,07,09,47,14.50
2012,10,07,09,48,14.40
2012,10,07,09,49,14.20
2012,10,07,09,50,14.10
2012,10,07,09,51,14.00
2012,10,07,09,52,13.90
2012,10,07,09,53,13.80
2012,10,07,09,54,13.80
2012,10,07,09,55,13.80
2012,10,07,09,56,13.80
2012,10,07,09,57,13.80
2012,10,07,09,58,13.80
2012,10,07,09,59,13.80
2012,10,07,10,00,13.80
2012,10,07,10,01,13.90
2012,10,07,10,02,13.90
2012,10,07,10,03,14.00
2012,10,07,10,04,14.00
2012,10,07,10,05,14.10
2012,10,07,10,06,14.10
2012,10,07,10,07,14.20
2012,10,07,10,08,14.30
2012,10,07,10,09,14.30
2012,10,07,10,10,14.40
2012,10,07,10,11,14.40
2012,10,07,10,12,14.50
2012,10,07,10,13,14.60
2012,10,07,10,14,14.70
2012,10,07,10,15,14.80
2012,10,07,10,16,15.00
2012,10,07,10,17,15.00
2012,10,07,10,18,15.10
2012,10,07,10,19,15.20
2012,10,07,10,20,15.40
2012,10,07,10,21,15.60
2012,10,07,10,22,15.70
2012,10,07,10,23,15.80
2012,10,07,10,24,15.90
2012,10,07,10,25,16.00
2012,10,07,10,26,16.10
2012,10,07,10,27,16.20
2012,10,07,10,28,16.30
2012,10,07,10,29,16.30
2012,10,07,10,30,16.40
2012,10,07,10,31,16.60
2012,10,07,10,32,16.60
2012,10,07,10,33,16.80
2012,10,07,10,34,16.80
2012,10,07,10,35,16.90
2012,10,07,10,36,16.90
2012,10,07,10,37,16.90
2012,10,07,10,38,16.90
2012,10,07,10,39,16.90
2012,10,07,10,40,16.90
2012,10,07,10,41,16.90
2012,10,07,10,42,16.80
2012,10,07,10,43,16.70
2012,10,07,10,44,16.60
2012,10,07,10,45,16.50
2012,10,07,10,46,16.30
2012,10,07,10,47,16.10
2012,10,07,10,48,16.00
2012,10,07,10,49,15.90
2012,10,07,10,50,15.80
2012,10,07,10,51,15.60
2012,10,07,10,52,15.60
2012,10,07,10,53,15.50
2012,10,07,10,54,15.40
2012,10,07,10,55,15.40
2012,10,07,10,56,15.40
2012,10,07,10,57,15.30
2012,10,07,10,58,15.30
2012,10,07,10,59,15.30
2012,10,07,11,00,15.30
2012,10,07,11,01,15.30
2012,10,07,11,02,15.40
2012,10,07,11,03,15.40
2012,10,07,11,04,15.50
2012,10,07,11,05,15.40
2012,10,07,11,06,15.40
2012,10,07,11,07,15.50
2012,10,07,11,08,15.60
2012,10,07,11,09,15.70
2012,10,07,11,10,15.70
2012,10,07,11,11,15.80
2012,10,07,11,12,15.80
2012,10,07,11,13,15.80
2012,10,07,11,14,15.70
2012,10,07,11,15,15.70
2012,10,07,11,16,15.70
2012,10,07,11,17,15.70
2012,10,07,11,18,15.70
2012,10,07,11,19,15.70
2012,10,07,11,20,15.70
2012,10,07,11,21,15.70
2012,10,07,11,22,15.80
2012,10,07,11,23,15.90
2012,10,07,11,24,15.90
2012,10,07,11,25,16.00
2012,10,07,11,26,16.10
2012,10,07,11,27,16.20
2012,10,07,11,28,16.20
2012,10,07,11,29,16.30
2012,10,07,11,30,16.30
2012,10,07,11,31,16.40
2012,10,07,11,32,16.40
2012,10,07,11,33,16.40
2012,10,07,11,34,16.30
2012,10,07,11,35,16.30
2012,10,07,11,36,16.30
2012,10,07,11,37,16.30
2012,10,07,11,38,16.40
2012,10,07,11,39,16.40
2012,10,07,11,40,16.40
2012,10,07,11,41,16.40
2012,10,07,11,42,16.50
2012,10,07,11,43,16.60
2012,10,07,11,44,16.60
2012,10,07,11,45,16.60
2012,10,07,11,46,16.60
2012,10,07,11,47,16.60
2012,10,07,11,48,16.60
2012,10,07,11,49,16.60
2012,10,07,11,50,16.70
2012,10,07,11,51,16.80
2012,10,07,11,52,16.80
2012,10,07,11,53,16.90
2012,10,07,11,54,17.00
2012,10,07,11,55,17.10
2012,10,07,11,56,17.20
2012,10,07,11,57,17.30
2012,10,07,11,58,17.30
2012,10,07,11,59,17.40
2012,10,07,12,00,17.40
2012,10,07,12,01,17.40
2012,10,07,12,02,17.50
2012,10,07,12,03,17.60
2012,10,07,12,04,17.70
2012,10,07,12,05,17.80
2012,10,07,12,06,17.80
2012,10,07,12,07,17.90
2012,10,07,12,08,18.00
2012,10,07,12,09,18.10
2012,10,07,12,10,18.20
2012,10,07,12,11,18.20
2012,10,07,12,12,18.20
2012,10,07,12,13,18.20
2012,10,07,12,14,18.30
2012,10,07,12,15,18.30
2012,10,07,12,16,18.30
2012,10,07,12,17,18.20
2012,10,07,12,18,18.20
2012,10,07,12,19,18.10
2012,10,07,12,20,18.00
2012,10,07,12,21,17.90
2012,10,07,12,22,17.70
2012,10,07,12,23,17.50
2012,10,07,12,24,17.40
2012,10,07,12,25,17.30
2012,10,07,12,26,17.30
2012,10,07,12,27,17.20
2012,10,07,12,28,17.10
2012,10,07,12,29,17.00
2012,10,07,12,30,16.90
2012,10,07,12,31,16.90
2012,10,07,12,32,16.80
2012,10,07,12,33,16.80
2012,10,07,12,34,16.80
2012,10,07,12,35,16.80
2012,10,07,12,36,16.80
2012,10,07,12,37,16.80
2012,10,07,12,38,16.80
2012,10,07,12,39,16.80
2012,10,07,12,40,16.90
2012,10,07,12,41,17.00
2012,10,07,12,42,17.00
2012,10,07,12,43,17.00
2012,10,07,12,44,17.00
2012,10,07,12,45,16.90
2012,10,07,12,46,16.90
2012,10,07,12,47,16.90
2012,10,07,12,48,16.90
2012,10,07,12,49,17.00
2012,10,07,12,50,17.10
2012,10,07,12,51,17.10
2012,10,07,12,52,17.20
2012,10,07,12,53,17.20
2012,10,07,12,54,17.20
2012,10,07,12,55,17.20
2012,10,07,12,56,17.20
2012,10,07,12,57,17.20
2012,10,07,12,58,17.30
2012,10,07,12,59,17.20
2012,10,07,13,00,17.30
2012,10,07,13,01,17.30
2012,10,07,13,02,17.30
2012,10,07,13,03,17.40
2012,10,07,13,04,17.50
2012,10,07,13,05,17.50
2012,10,07,13,06,17.60
2012,10,07,13,07,17.60
2012,10,07,13,08,17.50
2012,10,07,13,09,17.50
2012,10,07,13,10,17.40
2012,10,07,13,11,17.50
2012,10,07,13,12,17.50
2012,10,07,13,13,17.50
2012,10,07,13,14,17.60
2012,10,07,13,15,17.60
2012,10,07,13,16,17.70
2012,10,07,13,17,17.60
2012,10,07,13,18,17.50
2012,10,07,13,19,17.50
2012,10,07,13,20,17.40
2012,10,07,13,21,17.40
2012,10,07,13,22,17.30
2012,10,07,13,23,17.30
2012,10,07,13,24,17.30
2012,10,07,13,25,17.30
2012,10,07,13,26,17.30
2012,10,07,13,27,17.30
2012,10,07,13,28,17.30
2012,10,07,13,29,17.30
2012,10,07,13,30,17.30
2012,10,07,13,31,17.30
2012,10,07,13,32,17.30
2012,10,07,13,33,17.30
2012,10,07,13,34,17.20
2012,10,07,13,35,17.20
2012,10,07,13,36,17.20
2012,10,07,13,37,17.20
2012,10,07,13,38,17.20
2012,10,07,13,39,17.20
2012,10,07,13,40,17.20
2012,10,07,13,41,17.20
2012,10,07,13,42,17.20
2012,10,07,13,43,17.20
2012,10,07,13,44,17.10
2012,10,07,13,45,17.10
2012,10,07,13,46,17.20
2012,10,07,13,47,17.20
2012,10,07,13,48,17.30
2012,10,07,13,49,17.30
2012,10,07,13,50,17.30
2012,10,07,13,51,17.40
2012,10,07,13,52,17.40
2012,10,07,13,53,17.40
2012,10,07,13,54,17.40
2012,10,07,13,55,17.40
2012,10,07,13,56,17.40
2012,10,07,13,57,17.40
2012,10,07,13,58,17.40
2012,10,07,13,59,17.40
2012,10,07,14,00,17.50
2012,10,07,14,01,17.50
2012,10,07,14,02,17.50
2012,10,07,14,03,17.40
2012,10,07,14,04,17.40
2012,10,07,14,05,17.40
2012,10,07,14,06,17.50
2012,10,07,14,07,17.50
2012,10,07,14,08,17.60
2012,10,07,14,09,17.70
2012,10,07,14,10,17.80
2012,10,07,14,11,17.90
2012,10,07,14,12,18.00
2012,10,07,14,13,18.00
2012,10,07,14,14,18.10
2012,10,07,14,15,18.10
2012,10,07,14,16,18.20
2012,10,07,14,17,18.20
2012,10,07,14,18,18.30
2012,10,07,14,19,18.30
2012,10,07,14,20,18.40
2012,10,07,14,21,18.50
2012,10,07,14,22,18.50
2012,10,07,14,23,18.60
2012,10,07,14,24,18.60
2012,10,07,14,25,18.50
2012,10,07,14,26,18.40
2012,10,07,14,27,18.40
2012,10,07,14,28,18.40
2012,10,07,14,29,18.40
2012,10,07,14,30,18.40
2012,10,07,14,31,18.40
2012,10,07,14,32,18.40
2012,10,07,14,33,18.40
2012,10,07,14,34,18.40
2012,10,07,14,35,18.40
2012,10,07,14,36,18.40
2012,10,07,14,37,18.40
2012,10,07,14,38,18.50
2012,10,07,14,39,18.50
2012,10,07,14,40,18.50
2012,10,07,14,41,18.60
2012,10,07,14,42,18.60
2012,10,07,14,43,18.60
2012,10,07,14,44,18.60
2012,10,07,14,45,18.60
2012,10,07,14,46,18.60
2012,10,07,14,47,18.60
2012,10,07,14,48,18.70
2012,10,07,14,49,18.70
2012,10,07,14,50,18.70
2012,10,07,14,51,18.70
2012,10,07,14,52,18.70
2012,10,07,14,53,18.80
2012,10,07,14,54,18.90
2012,10,07,14,55,19.00
2012,10,07,14,56,19.00
2012,10,07,14,57,19.10
2012,10,07,14,58,19.20
2012,10,07,14,59,19.40
2012,10,07,15,00,19.50
2012,10,07,15,01,19.60
2012,10,07,15,02,19.60
2012,10,07,15,03,19.70
2012,10,07,15,04,19.70
2012,10,07,15,05,19.70
2012,10,07,15,06,19.70
2012,10,07,15,07,19.70
2012,10,07,15,08,19.70
2012,10,07,15,09,19.70
2012,10,07,15,10,19.80
2012,10,07,15,11,19.80
2012,10,07,15,12,19.80
2012,10,07,15,13,19.90
2012,10,07,15,14,19.90
2012,10,07,15,15,19.90
2012,10,07,15,16,19.90
2012,10,07,15,17,19.90
2012,10,07,15,18,19.80
2012,10,07,15,19,19.80
2012,10,07,15,20,19.80
2012,10,07,15,21,19.90
2012,10,07,15,22,19.90
2012,10,07,15,23,20.00
2012,10,07,15,24,20.10
2012,10,07,15,25,20.10
2012,10,07,15,26,20.10
2012,10,07,15,27,20.10
2012,10,07,15,28,20.10
2012,10,07,15,29,20.10
2012,10,07,15,30,20.00
2012,10,07,15,31,20.00
2012,10,07,15,32,19.90
2012,10,07,15,33,19.80
2012,10,07,15,34,19.80
2012,10,07,15,35,19.70
2012,10,07,15,36,19.70
2012,10,07,15,37,19.60
2012,10,07,15,38,19.40
2012,10,07,15,39,19.30
2012,10,07,15,40,19.20
2012,10,07,15,41,19.00
2012,10,07,15,42,19.00
2012,10,07,15,43,18.90
2012,10,07,15,44,18.90
2012,10,07,15,45,18.90
2012,10,07,15,46,18.90
2012,10,07,15,47,18.90
2012,10,07,15,48,18.80
2012,10,07,15,49,18.80
2012,10,07,15,50,18.70
2012,10,07,15,51,18.70
2012,10,07,15,52,18.70
2012,10,07,15,53,18.70
2012,10,07,15,54,18.70
2012,10,07,15,55,18.70
2012,10,07,15,56,18.70
2012,10,07,15,57,18.70
2012,10,07,15,58,18.70
2012,10,07,15,59,18.70
2012,10,07,16,00,18.70
2012,10,07,16,01,18.70
2012,10,07,16,02,18.70
2012,10,07,16,03,18.80
2012,10,07,16,04,18.80
2012,10,07,16,05,18.80
2012,10,07,16,06,18.90
2012,10,07,16,07,18.90
2012,10,07,16,08,18.80
2012,10,07,16,09,18.80
2012,10,07,16,10,18.80
2012,10,07,16,11,18.80
2012,10,07,16,12,18.80
2012,10,07,16,13,18.80
2012,10,07,16,14,18.90
2012,10,07,16,15,18.90
2012,10,07,16,16,19.00
2012,10,07,16,17,19.10
2012,10,07,16,18,19.20
2012,10,07,16,19,19.30
2012,10,07,16,20,19.40
2012,10,07,16,21,19.50
2012,10,07,16,22,19.60
2012,10,07,16,23,19.60
2012,10,07,16,24,19.70
2012,10,07,16,25,19.70
2012,10,07,16,26,19.70
2012,10,07,16,27,19.60
2012,10,07,16,28,19.50
2012,10,07,16,29,19.50
2012,10,07,16,30,19.40
2012,10,07,16,31,19.40
2012,10,07,16,32,19.40
2012,10,07,16,33,19.30
2012,10,07,16,34,19.30
2012,10,07,16,35,19.30
2012,10,07,16,36,19.30
2012,10,07,16,37,19.20
2012,10,07,16,38,19.20
2012,10,07,16,39,19.10
2012,10,07,16,40,19.10
2012,10,07,16,41,19.20
2012,10,07,16,42,19.20
2012,10,07,16,43,19.20
2012,10,07,16,44,19.20
2012,10,07,16,45,19.20
2012,10,07,16,46,19.20
2012,10,07,16,47,19.20
2012,10,07,16,48,19.20
2012,10,07,16,49,19.20
2012,10,07,16,50,19.10
2012,10,07,16,51,19.10
2012,10,07,16,52,19.10
2012,10,07,16,53,19.10
2012,10,07,16,54,19.10
2012,10,07,16,55,19.10
2012,10,07,16,56,19.10
2012,10,07,16,57,19.10
2012,10,07,16,58,19.10
2012,10,07,16,59,19.00
2012,10,07,17,00,19.00
2012,10,07,17,01,19.10
2012,10,07,17,02,19.10
2012,10,07,17,03,19.10
2012,10,07,17,04,19.20
2012,10,07,17,05,19.20
2012,10,07,17,06,19.20
2012,10,07,17,07,19.30
2012,10,07,17,08,19.40
2012,10,07,17,09,19.40
2012,10,07,17,10,19.50
2012,10,07,17,11,19.50
2012,10,07,17,12,19.60
2012,10,07,17,13,19.60
2012,10,07,17,14,19.60
2012,10,07,17,15,19.60
2012,10,07,17,16,19.60
2012,10,07,17,17,19.60
2012,10,07,17,18,19.60
2012,10,07,17,19,19.60
2012,10,07,17,20,19.60
2012,10,07,17,21,19.60
2012,10,07,17,22,19.60
2012,10,07,17,23,19.60
2012,10,07,17,24,19.60
2012,10,07,17,25,19.60
2012,10,07,17,26,19.60
2012,10,07,17,27,19.60
2012,10,07,17,28,19.60
2012,10,07,17,29,19.60
2012,10,07,17,30,19.50
2012,10,07,17,31,19.50
2012,10,07,17,32,19.50
2012,10,07,17,33,19.50
2012,10,07,17,34,19.40